Weather in Doldykan

Russia / Amur Oblast     49°53′54″N   129°52′42″E
temp.,
°C
wind,
m/s
gust,
m/s
humid.,
%
clouds,
%
prec.,
mm/h
press.,
hPa
HPBL,
m
9 march, tue
tue900:00−4s61287100 0.0 1010377
03:00−6s41089100 0.0 1007236
06:00−6ssw4896100 0.6 1005263
09:00−6wsw2395100 0.9 1006246
12:00−4nnw71094100 1.6 1009652
15:00−5nnw81383100 1.7 1012965
18:00−6nnw5168180 0.0 1016771
21:00−7nnw5158340 0.0 1020488
10 march, wed
wed1000:00−11nw48860 0.0 1023155
03:00−15nw22910 0.0 102523
06:00−18w019322 0.0 102620
09:00−11s238840 0.0 1025138
12:00−6s5888100 0.0 1022364
15:00−3ssw6985100 0.0 1019741
18:00−3sw41086100 0.0 1018347
21:00−5sw4986100 0.0 1019213
11 march, thu
thu1100:00−7wnw369163 0.0 1021132
03:00−10nw349231 0.0 102453
06:00−14nw22950 0.0 102722
09:00−11nw23860 0.0 1029220
12:00−6wnw34740 0.0 1029437
15:00−4wnw34720 0.0 1028544
18:00−9wnw11830 0.0 102821
21:00−12sse12850 0.0 103021
12 march, fri
fri1200:00−13s22830 0.0 103021
03:00−14sse22880 0.0 103021
06:00−14sse22940 0.0 103020
09:00−9s35900 0.0 1029250
12:00−4ssw57890 0.0 1027385
15:00−2ssw589420 0.0 1023524
18:00−3ssw499138 0.0 1022214
21:00−5ssw488819 0.0 1023139
13 march, sat
sat1300:00−6ssw46880 0.0 1022111
03:00−7ssw46860 0.0 1021109
06:00−8s49830 0.0 1020168
09:00−4ssw612790 0.0 1018452
12:000sw6128839 0.0 1016623
15:000ssw3109764 0.0 1014645
18:00−2s239523 0.0 101439
21:00−4ssw348812 0.0 101663